sat.trackr.live / text

‹ back to catalog

STARLINK-11266 [DTC]

NORAD 60732 · 2024-152N

PAYLOAD ACTIVE UNKNOWN

§ Identity

Operator
Country
US
Launch date
2024-08-28
Launch site
AFETR
Launch vehicle
Mass (kg)
RCS (m²)

Purposes: comms

External: N2YO · Heavens-Above · Gunter

§ Orbital elements

Epoch: 2026-05-25T02:47:06.099648Z

Period
91.74 min
Inclination
53.1602°
Eccentricity
0.0001051
Mean motion
15.69707253 rev/d
Perigee alt
359.0 km
Apogee alt
360.4 km
Semi-major
6,737.9 km
B*
6.6844e-6
RAAN
99.1235°
Arg perigee
102.0629°
Mean anomaly
258.0507°
Rev number
10,084

§ Raw data

STARLINK-11266 [DTC]1 60732U 24152N   26145.11604282  .00000221  00000+0  66844-5 0  99912 60732  53.1602  99.1235 0001051 102.0629 258.0507 15.69707253100848

JSON: /api/v1/satellites/60732 · /tle

For live sub-satellite position, see the globe view (requires WebGL).

§ Visibility from observer

Set your observer location to see the next 7 days of passes ≥ 10°. The values pass through the URL so the page stays shareable.

No JS? Fill the form by hand. The geolocation button needs JavaScript.